Medicine Lodge, KS

6:32 AM CDT on May 30, 2017 (GMT -0500)
Medicine Lodge

Weather History for KP28 - January, 2013

Change the Weather History Date:

Sunday, January 13, 2013

  Actual Average Record
Temperature  
Mean Temperature 21 °F 33 °F  
Max Temperature 30 °F 45 °F 75 °F (1928)
Min Temperature 12 °F 21 °F -11 °F (1916)
Degree Days  
Heating Degree Days 44 32  
Month to date heating degree days 405 416  
Since 1 July heating degree days 1987 2215  
Cooling Degree Days 0 0  
Month to date cooling degree days 0 0  
Year to date cooling degree days 0 0  
Moisture  
Dew Point 7 °F    
Average Humidity 57    
Maximum Humidity 80    
Minimum Humidity 34    
Precipitation  
Precipitation 0.00 in 0.02 in 0.51 in (1941)
Month to date precipitation 0.56 0.23  
Year to date precipitation 0.56 0.23  
Snow  
Snow 0.00 in 0.10 in - ()
Month to date snowfall T 0.8  
Since 1 July snowfall 1.0 3.7  
Snow Depth -    
Sea Level Pressure  
Sea Level Pressure 30.31 in    
Wind  
Wind Speed 8 mph (North)    
Max Wind Speed 20 mph    
Max Gust Speed 24 mph    
T = Trace of Precipitation, MM = Missing Value Source: NWS Daily Summary

Daily Weather History Graph

Daily Weather History Graph

Search for Another Location

Airport or City:

Trip Planner

Search our weather history database for the weather conditions in past years. The results will help you decide how hot, cold, wet, or windy it might be!

Date:

Astronomy

Jan. 13, 2013 Rise Set
Actual Time 7:47 AM CST 5:38 PM CST
Civil Twilight 7:19 AM CST 6:07 PM CST
Nautical Twilight 6:47 AM CST 6:39 PM CST
Astronomical Twilight 6:15 AM CST 7:10 PM CST
Moon 8:51 AM CST (1/13) 8:14 PM CST (1/13)
Length of Visible Light 10h 48m
Length of Day
9h 50m
Waxing Crescent, 5% of the Moon is Illuminated
Jan 13
Waxing Crescent
Jan 18
First Quarter
Jan 26
Full
Feb 3
Last Quarter
Feb 10
New

Hourly Weather History & Observations

Time (CST) Temp. Windchill Dew Point Humidity Pressure Visibility Wind Dir Wind Speed Gust Speed Precip Events Conditions
12:56 AM 19.0 °F 6.8 °F 9.0 °F 65% 30.16 in - North 11.5 mph - N/A   Unknown
1:56 AM 18.0 °F 5.4 °F 9.0 °F 68% 30.20 in - North 11.5 mph - N/A   Unknown
2:56 AM 17.1 °F 3.6 °F 8.1 °F 68% 30.23 in - North 12.7 mph - N/A   Unknown
3:56 AM 16.0 °F 2.3 °F 7.0 °F 68% 30.24 in - North 12.7 mph - N/A   Unknown
4:56 AM 15.1 °F 2.5 °F 6.1 °F 68% 30.24 in - NNW 10.4 mph - N/A   Unknown
5:56 AM 14.0 °F -0.2 °F 6.1 °F 71% 30.26 in - North 12.7 mph - N/A   Unknown
6:56 AM 12.9 °F -0.9 °F 6.1 °F 74% 30.30 in - NNW 11.5 mph - N/A   Unknown
7:56 AM 12.0 °F -1.3 °F 5.0 °F 73% 30.33 in - NNW 10.4 mph - N/A   Unknown
8:56 AM 15.1 °F 2.5 °F 6.1 °F 68% 30.36 in - NNW 10.4 mph - N/A   Unknown
9:56 AM 18.0 °F 5.4 °F 3.9 °F 54% 30.38 in - North 11.5 mph - N/A   Unknown
10:56 AM 21.0 °F 10.6 °F 3.9 °F 48% 30.37 in - North 9.2 mph 18.4 mph N/A   Unknown
11:56 AM 24.1 °F 14.4 °F 3.0 °F 40% 30.35 in - North 9.2 mph - N/A   Unknown
12:56 PM 26.1 °F 16.2 °F 5.0 °F 41% 30.31 in - NNW 10.4 mph - N/A   Unknown
1:56 PM 28.0 °F - 3.0 °F 34% 30.30 in - North - - N/A   Unknown
2:56 PM 28.9 °F 21.9 °F 3.9 °F 35% 30.30 in - North 6.9 mph - N/A   Unknown
3:56 PM 28.9 °F 21.9 °F 6.1 °F 38% 30.32 in - North 6.9 mph - N/A   Unknown
4:56 PM 28.9 °F 21.1 °F 6.1 °F 38% 30.32 in - North 8.1 mph - N/A   Unknown
5:56 PM 25.0 °F 20.7 °F 8.1 °F 49% 30.34 in - North 3.5 mph - N/A   Unknown
6:56 PM 21.9 °F 15.7 °F 10.0 °F 60% 30.35 in - NNE 4.6 mph - N/A   Unknown
7:56 PM 21.0 °F 16.2 °F 9.0 °F 60% 30.37 in - North 3.5 mph - N/A   Unknown
8:56 PM 19.0 °F 13.9 °F 10.9 °F 71% 30.38 in - North 3.5 mph - N/A   Unknown
9:56 PM 17.1 °F 11.7 °F 10.9 °F 77% 30.37 in - NNE 3.5 mph - N/A   Unknown
11:56 PM 15.1 °F 9.4 °F 10.0 °F 80% 30.41 in - NNE 3.5 mph - N/A   Unknown